Home > Weather > Dickinson > Past weeks

Flag for USA Past Weather in Dickinson, North Dakota, USA — Yesterday and Last 2 Weeks

Now
44 °F

Passing clouds.


Feels Like: 40 °F
Forecast: 45 / 75 °F
Wind: 7 mph from West

Location: Dickinson Municipal Airport

Current Time: May 29, 2016 at 5:48:58 AM

Latest Report: May 29, 2016 at 4:56 AM


Visibility: 10 mi

Pressure: 30.01 "Hg (27.44 "Hg at 735m altitude)

Humidity: 89%

Dew Point: 41 °F

Location of DickinsonLocation

Past Weather in Dickinson — Graph

°F

Dickinson Temperature Yesterday

Maximum temperature yesterday: 69 °F (at 11:56 AM)
Minimum temperature yesterday: 43 °F (at 4:56 AM)
Average temperature yesterday: 55 °F

High & Low Weather Summary for the Past Weeks

 TemperatureHumidityPressure
High77 °F (May 19, 1:56 PM)100% (May 28, 5:56 AM)30.40 "Hg (May 28, 5:56 AM)
Low27 °F (May 14, 4:56 AM)19% (May 23, 3:56 PM)29.56 "Hg (May 22, 5:56 PM)
Average56 °F59%29.89 "Hg
* Reported May 14 4:56 AM — May 29 4:56 AM, Dickinson, Weather by CustomWeather, © 2016

Note: Actual official high and low records may vary slightly from our data, if they occured in-between our weather recording intervals... More about our weather records

Advertising

Dickinson Weather History for the Previous 24 Hours

Scroll right to see more
 ConditionsComfort  
Time TempWeatherWind HumidityBarometerVisibility
4:56 AM
Sun, May 29
44 °FPassing clouds.7 mph89%30.01 "Hg10 mi
3:56 AM46 °FPassing clouds.7 mph89%30.00 "Hg10 mi
2:56 AM49 °FPassing clouds.7 mph90%30.00 "Hg10 mi
1:56 AM47 °FPassing clouds.8 mph97%30.00 "Hg10 mi
12:56 AM47 °FClear.7 mph97%29.97 "Hg10 mi
11:56 PM
Sat, May 28
44 °FClear.3 mph93%29.97 "Hg10 mi
10:56 PM48 °FFog.3 mph96%29.96 "Hg5 mi
10:01 PM49 °FFog.3 mph93%29.97 "Hg1 mi
8:56 PM55 °FClear.5 mph87%29.95 "Hg10 mi
7:56 PM60 °FPassing clouds.3 mph80%29.93 "Hg10 mi
6:56 PM60 °FBroken clouds.9 mph80%29.92 "Hg10 mi
5:56 PM65 °FLight rain. Broken clouds.5 mph59%29.89 "Hg10 mi
4:56 PM64 °FPartly sunny.3 mph58%29.89 "Hg10 mi
3:56 PM63 °FPartly sunny.No wind65%29.88 "Hg10 mi
2:56 PM58 °FLight rain. More clouds than sun.3 mph81%29.88 "Hg10 mi
1:56 PM55 °FThunderstorms. Fog.10 mph87%29.89 "Hg4 mi
12:56 PM69 °FPassing clouds.9 mph44%29.82 "Hg10 mi
11:56 AM69 °FPartly sunny.5 mph42%29.83 "Hg10 mi
10:56 AM66 °FScattered clouds.No wind50%29.84 "Hg10 mi
9:56 AM64 °FSunny.6 mph56%29.85 "Hg10 mi
8:56 AM59 °FSunny.3 mph69%29.86 "Hg10 mi
7:56 AM52 °FPassing clouds.5 mph89%29.86 "Hg8 mi
6:56 AM49 °FFog.9 mph100%29.85 "Hg0 mi
5:56 AM48 °FFog.8 mph100%29.85 "Hg0 mi
Weather by CustomWeather, © 2016

See weather overviewHow to use our weather pages